Weather History for KDSM - October, 2012

Change the Weather History Date:

Tuesday, October 9, 2012

  Actual Average Record
Temperature  
Mean Temperature 49 °F 56 °F  
Max Temperature 60 °F 66 °F 87 °F (1938)
Min Temperature 37 °F 45 °F 23 °F (1895)
Degree Days  
Heating Degree Days 16 10  
Month to date heating degree days 111 78  
Since 1 July heating degree days 180 178  
Cooling Degree Days 0 1  
Month to date cooling degree days 2 9  
Year to date cooling degree days 1601 1061  
Growing Degree Days 2 (Base 50)    
Moisture  
Dew Point 36 °F    
Average Humidity 61    
Maximum Humidity 76    
Minimum Humidity 46    
Precipitation  
Precipitation 0.03 in 0.08 in 1.38 in (1985)
Month to date precipitation 0.04 0.78  
Year to date precipitation 19.73 30.55  
Snow  
Snow 0.00 in 0.00 in T in (1987)
Month to date snowfall 0.0 0.0  
Since 1 July snowfall 0.0 0.0  
Since 1 September snowfall 0.0 0.0  
Snow Depth 0.00 in    
Sea Level Pressure  
Sea Level Pressure 29.92 in    
Wind  
Wind Speed 10 mph (West)    
Max Wind Speed 23 mph    
Max Gust Speed 28 mph    
Visibility 10 miles    
Events Rain    
T = Trace of Precipitation, MM = Missing Value Source: NWS Daily Summary

Daily Weather History Graph

Daily Weather History Graph

Search for Another Location

Airport or City:

Trip Planner

Search our weather history database for the weather conditions in past years. The results will help you decide how hot, cold, wet, or windy it might be!

Date:

Astronomy

Oct. 09, 2012 Rise Set
Actual Time 7:20 AM CDT 6:42 PM CDT
Civil Twilight 6:52 AM CDT 7:09 PM CDT
Nautical Twilight 6:20 AM CDT 7:42 PM CDT
Astronomical Twilight 5:48 AM CDT 8:14 PM CDT
Moon 12:53 AM CDT (10/9) 3:14 PM CDT (10/9)
Length of Visible Light 12h 17m
Length of Day
11h 21m
Last Quarter, 36% of the Moon is Illuminated
Oct 9
Last Quarter
Oct 15
New
Oct 21
First Quarter
Oct 29
Full
Nov 6
Last Quarter

Hourly Weather History & Observations

Time (CDT) Temp. Windchill Dew Point Humidity Pressure Visibility Wind Dir Wind Speed Gust Speed Precip Events Conditions
12:54 AM 53.1 °F - 34.0 °F 48% 29.85 in 10.0 mi SSW 8.1 mph - N/A   Scattered Clouds
1:54 AM 53.1 °F - 34.0 °F 48% 29.86 in 10.0 mi SSW 6.9 mph - N/A   Overcast
2:54 AM 53.1 °F - 35.1 °F 50% 29.86 in 10.0 mi SW 9.2 mph - N/A   Overcast
3:54 AM 53.6 °F - 35.6 °F 51% 29.84 in 10.0 mi SSW 10.4 mph - N/A   Overcast
4:54 AM 53.1 °F - 35.1 °F 50% 29.82 in 10.0 mi SSW 11.5 mph - N/A   Overcast
5:54 AM 53.1 °F - 36.0 °F 52% 29.82 in 10.0 mi SSW 10.4 mph - N/A   Overcast
6:54 AM 52.0 °F - 36.0 °F 54% 29.83 in 10.0 mi SSW 6.9 mph - N/A   Overcast
7:54 AM 52.0 °F - 36.0 °F 54% 29.84 in 10.0 mi South 6.9 mph - N/A   Overcast
8:54 AM 53.1 °F - 37.0 °F 55% 29.87 in 10.0 mi WSW 8.1 mph - N/A   Overcast
9:54 AM 57.9 °F - 37.0 °F 46% 29.86 in 10.0 mi WNW 12.7 mph - N/A   Overcast
10:54 AM 60.1 °F - 39.9 °F 47% 29.86 in 10.0 mi NW 10.4 mph - N/A   Overcast
11:54 AM 59.0 °F - 42.1 °F 53% 29.89 in 10.0 mi NW 16.1 mph 21.9 mph N/A   Overcast
12:54 PM 57.9 °F - 41.0 °F 53% 29.90 in 10.0 mi NW 20.7 mph 25.3 mph N/A   Overcast
1:54 PM 54.0 °F - 39.9 °F 59% 29.94 in 10.0 mi NW 20.7 mph 26.5 mph N/A   Overcast
2:15 PM 51.8 °F - 39.2 °F 62% 29.94 in 10.0 mi NNW 15.0 mph - N/A   Overcast
2:41 PM 51.8 °F - 39.2 °F 62% 29.95 in 10.0 mi NW 18.4 mph 23.0 mph 0.00 in Rain Light Rain
2:54 PM 50.0 °F - 37.9 °F 63% 29.96 in 10.0 mi NW 18.4 mph - 0.00 in Rain Light Rain
3:54 PM 46.9 °F - 39.9 °F 77% 29.96 in 10.0 mi West 4.6 mph - 0.03 in Rain Light Rain
4:54 PM 48.0 °F - 41.0 °F 77% 29.96 in 10.0 mi SW 6.9 mph - N/A   Overcast
5:54 PM 48.9 °F - 37.0 °F 64% 29.98 in 10.0 mi WNW 11.5 mph - N/A   Overcast
6:54 PM 46.9 °F - 33.1 °F 59% 29.99 in 10.0 mi West 6.9 mph - N/A   Overcast
7:54 PM 45.0 °F 40.6 °F 33.1 °F 63% 30.01 in 10.0 mi WNW 8.1 mph - N/A   Mostly Cloudy
8:54 PM 46.0 °F 41.0 °F 30.0 °F 54% 30.05 in 10.0 mi NNW 10.4 mph - N/A   Clear
9:54 PM 43.0 °F 38.2 °F 30.0 °F 60% 30.07 in 10.0 mi NW 8.1 mph - N/A   Partly Cloudy
10:54 PM 43.0 °F 38.2 °F 30.0 °F 60% 30.09 in 10.0 mi NW 8.1 mph - N/A   Scattered Clouds
11:54 PM 41.0 °F 37.1 °F 28.9 °F 62% 30.10 in 10.0 mi WNW 5.8 mph - N/A   Clear